Location: Arbon
(43.0005°N, 0.7472°E)
Time: 15:25:34
(UTC+00:00)

SR - All Passes

Search period start: 26 November 2020 00:00
Search period end: 06 December 2020 00:00
Orbit: 579 x 876 km, 66.7° (Epoch: 25 November)

Date Brightness Start Highest point End Pass type
(mag) Time Alt. Az. Time Alt. Az. Time Alt. Az.
26 Nov - 02:25:39 10° N 02:29:41 22° NE 02:33:56 10° E visible
26 Nov - 04:06:54 10° NW 04:12:13 72° WSW 04:17:55 10° SSE visible
26 Nov - 18:38:28 10° SSW 18:42:42 64° ESE 18:47:14 10° NE visible
26 Nov - 20:22:11 10° W 20:25:15 18° NW 20:28:27 10° N visible
27 Nov - 01:36:51 10° N 01:39:25 14° NE 01:42:05 10° ENE night (unlit)
27 Nov - 03:17:12 10° NNW 03:22:28 62° ENE 03:28:07 10° SE visible
27 Nov - 05:00:11 10° WNW 05:04:10 21° WSW 05:08:20 10° SSW visible
27 Nov - 17:49:31 10° S 17:53:12 28° ESE 17:57:05 10° NE visible
27 Nov - 19:31:13 10° WSW 19:35:08 32° NW 19:39:18 10° NNE visible
28 Nov - 02:27:44 10° NNW 02:32:34 35° NE 02:37:42 10° ESE visible
28 Nov - 04:09:41 10° NW 04:14:42 40° WSW 04:20:00 10° S visible
28 Nov - 17:01:52 10° SE 17:03:52 13° ESE 17:05:55 10° ENE visible
28 Nov - 18:40:56 10° SW 18:45:13 64° WNW 18:49:49 10° NNE visible
28 Nov - 20:26:51 10° NW 20:28:19 11° NW 20:29:50 10° NNW visible
29 Nov - 01:38:31 10° N 01:42:28 21° NE 01:46:38 10° E night (unlit)
29 Nov - 03:19:42 10° NW 03:25:04 76° WSW 03:30:48 10° SSE visible
29 Nov - 05:04:58 10° W 05:06:23 11° WSW 05:07:49 10° WSW visible
29 Nov - 17:51:18 10° SSW 17:55:31 59° ESE 18:00:03 10° NE visible
29 Nov - 19:34:49 10° W 19:38:01 19° NW 19:41:22 10° N visible
30 Nov - 00:49:46 10° N 00:52:12 13° NE 00:54:41 10° ENE night (unlit)
30 Nov - 02:30:01 10° NNW 02:35:18 59° NE 02:40:56 10° SE night (unlit)
30 Nov - 04:12:53 10° WNW 04:17:02 23° WSW 04:21:22 10° SSW visible
30 Nov - 17:02:26 10° SSE 17:06:02 27° ESE 17:09:50 10° NE visible
30 Nov - 18:43:55 10° WSW 18:47:54 34° NW 18:52:10 10° NNE visible
01 Dec - 01:40:34 10° NNW 01:45:22 33° NE 01:50:28 10° ESE night (unlit)
01 Dec - 03:22:27 10° NW 03:27:32 43° WSW 03:32:56 10° S night (unlit)
01 Dec - 16:15:02 10° SE 16:16:44 12° ESE 16:18:28 10° E daylight
01 Dec - 17:53:42 10° SW 17:58:01 69° WNW 18:02:39 10° NNE visible
01 Dec - 19:39:16 10° WNW 19:41:04 12° NW 19:42:56 10° NNW visible
02 Dec - 00:51:22 10° N 00:55:15 20° NE 00:59:20 10° E night (unlit)
02 Dec - 02:32:30 10° NNW 02:37:54 81° WSW 02:43:40 10° SSE night (unlit)
02 Dec - 04:17:16 10° W 04:19:15 12° WSW 04:21:17 10° SW night (unlit)
02 Dec - 17:04:08 10° SSW 17:08:20 55° ESE 17:12:51 10° NE visible
02 Dec - 18:47:27 10° W 18:50:47 20° NW 18:54:17 10° N visible
03 Dec - 00:02:41 10° N 00:04:57 13° NE 00:07:17 10° ENE night (unlit)
03 Dec - 01:42:50 10° NNW 01:48:07 56° NE 01:53:44 10° SE night (unlit)
03 Dec - 03:25:35 10° WNW 03:29:54 24° WSW 03:34:24 10° SSW night (unlit)
03 Dec - 16:15:21 10° SSE 16:18:52 25° ESE 16:22:35 10° NE daylight
03 Dec - 17:56:38 10° WSW 18:00:41 36° NW 18:05:02 10° NNE visible
04 Dec - 00:53:24 10° NNW 00:58:10 32° NE 01:03:13 10° ESE night (unlit)
04 Dec - 02:35:13 10° NW 02:40:23 46° WSW 02:45:52 10° S night (unlit)
04 Dec - 15:28:16 10° ESE 15:29:35 11° ESE 15:30:54 10° E daylight
04 Dec - 17:06:29 10° SW 17:10:49 74° WNW 17:15:29 10° NNE visible
04 Dec - 18:51:45 10° WNW 18:53:49 13° NW 18:55:56 10° N visible
05 Dec - 00:04:14 10° N 00:08:02 19° NE 00:12:01 10° E night (unlit)
05 Dec - 01:45:18 10° NNW 01:50:44 86° WSW 01:56:31 10° SSE night (unlit)
05 Dec - 03:29:41 10° WNW 03:32:08 13° WSW 03:34:37 10° SW night (unlit)
05 Dec - 16:16:58 10° S 16:21:09 51° ESE 16:25:39 10° NE daylight
05 Dec - 18:00:05 10° W 18:03:32 21° NW 18:07:11 10° N visible
05 Dec - 23:15:37 10° N 23:17:43 12° NE 23:19:51 10° ENE night (unlit)
